Weather Roundup
Issued by NWS Corpus Christi, TX

Home | Current Version | Previous Version | Text Only | Print | Product List | Glossary On
Versions: 1 2 3 4 5 6 7 8 9 10 11 12 13 14 15 16 17 18 19 20 21 22 23 24 25 26 27 28 29 30 31 32 33 34 35 36 37 38 39 40 41 42 43 44 45 46 47 48 49 50
000
ASUS44 KCRP 070110
HRRCRP

SOUTH TEXAS REGIONAL WEATHER ROUNDUP
NATIONAL WEATHER SERVICE CORPUS CHRISTI TX
800 PM CDT WED MAY 06 2015


TXZ229>244-070200-
...CORPUS CHRISTI AREA OBSERVATIONS...

CITY           SKY/WX    TMP DP  RH WIND       PRES   REMARKS
CORPUS CHRISTI MOCLDY    79  71  76 SE14      29.84R
NAS CORPUS CHR CLOUDY    77  74  90 E15       29.85R
ROCKPORT       CLOUDY    78  72  81 SE16      29.85S
KINGSVILLE NAS MOCLDY    79  74  84 SE14      29.83R
ALICE          CLEAR     80  71  74 SE12      29.82R
FALFURRIAS     CLOUDY    80  72  75 E8        29.81R
$$

...VICTORIA AREA OBSERVATIONS...

CITY           SKY/WX    TMP DP  RH WIND       PRES   REMARKS
VICTORIA       MOCLDY    77  71  82 SE13      29.87F
BEEVILLE       FAIR      78  70  77 SE10      29.85R
PLEASANTON     HVY RAIN  79  65  62 SE9G17    29.83S
SAN ANTONIO    CLOUDY    79  67  66 SE17      29.85R
$$

...LAREDO AREA OBSERVATIONS...

CITY           SKY/WX    TMP DP  RH WIND       PRES   REMARKS
LAREDO         PTCLDY    80  71  74 E13       29.81R
COTULLA        CLOUDY    79  69  71 SE12      29.81R
DEL RIO        CLOUDY    78  69  73 SE15G24   29.75F
MCALLEN        PTCLDY    82  72  71 SE12      29.80S
HEBBRONVILLE     N/A     78  71  78 SE6       29.83R
$$

...OTHER TEXAS OBSERVATIONS...

CITY           SKY/WX    TMP DP  RH WIND       PRES   REMARKS
BROWNSVILLE    MOCLDY    79  73  82 SE12      29.82S
HOUSTON        MOCLDY    76  70  82 SE18G24   29.91S
COL. STATION   MOCLDY    78  69  73 SE14      29.87S
AUSTIN         MOCLDY    79  69  71 SE17      29.83F
WACO           CLEAR     79  69  71 SE13      29.84R
FORT WORTH     CLOUDY    77  68  73 SE14      29.83R
WICHITA FALLS  CLOUDY    71  68  90 S13       29.76R
LUBBOCK        PTCLDY    77  48  35 SW8       29.77F
EL PASO        PTCLDY    82  24  12 W6        29.77F
$$

...MARINE OBSERVATIONS...

STATION/POSITION TIME  SKY/WX   TEMP    WIND        PRES    VSBY  WAVE   SWELL
                                AIR SEA DIR/SP/G                  HT/PER HT/PER
                 (UTC)          (F)     (DEG/KT/KT) (MB)    (MI)  (FT/S) (FT/S)
PORT ARANSAS     0100            76 79  100/ 18/ 19 1011.5R
BUOY 90 E PORT A 0050            77 76  110/ 12/ 14 1012.6S         5/ 8   3/ 8
BUOY 45 SE BAFFI 0050            77 77  120/ 16/ 17 1010.1F         5/ 8   3/ 8
BUOY 200 E PT IS 0050            79 78  120/ 14/ 16 1012.3R         4/ 7   3/ 7
BUOY 15 E GALVES 0050            76 76  110/ 17/ 21 1012.9R         4/ 7   2/ 7
$$



USA.gov is the U.S. government's official web portal to all federal, state and local government web resources and services.